Regional Weather Roundup
Issued by NWS

Home | Current Version | Previous Version | Text Only | Print | Product List | Glossary Off
Versions: 1 2 3 4 5 6 7 8 9 10 11 12 13 14 15 16 17 18 19 20 21 22 23 24 25 26 27 28 29 30 31 32 33 34 35 36 37 38 39 40 41 42 43 44 45 46 47 48 49 50

000
ASUS45 KABQ 222001
RWRNM
NEW MEXICO REGIONAL WEATHER ROUNDUP
NATIONAL WEATHER SERVICE ALBUQUERQUE NM
200 PM MDT WED MAR 22 2017

NOTE: "FAIR" MEANS FEW OR NO CLOUDS BELOW 12,000 FEET AGL WITH NO
       SIGNIFICANT WEATHER OR OBSTRUCTIONS TO VISION.

      THIS PRODUCT IS RELEASED AS TWO VERSIONS.  ONE VERSION NEAR
      THE TOP OF THE HOUR CONTAINING PRELIMINARY DATA FROM ALBUQUERQUE
      AND OTHER STATIONS.  A FINAL VERSION WITH ADDITIONAL DATA IS
      ISSUED ABOUT 10 MINUTES AFTER THE HOUR.

NMZ501-503-504-510>518-222100-
NORTHWEST PLATEAU/NORTHCENTRAL MOUNTAINS

CITY           SKY/WX    TMP DP  RH WIND       PRES   REMARKS
FARMINGTON     FAIR      69  21  16 S10       29.99F
LOS ALAMOS     FAIR      67  21  17 S15G24    30.12F
SANTA FE       FAIR      73  30  20 VRB6      30.07F
TAOS             N/A     70  25  18 SW14G26   30.10F
ANGEL FIRE     FAIR      65  17  15 SW18G25   30.17F

$$
NMZ402-403-502-505>509-222100-
WESTCENTRAL MOUNTAINS/SOUTHWEST MOUNTAINS

CITY           SKY/WX    TMP DP  RH WIND       PRES   REMARKS
GALLUP         FAIR      69  19  15 S17G23    30.05F
GRANTS         FAIR      74  16  11 SW13G18   30.06F
SILVER CITY    FAIR      77  23  13 SW15G22   30.09F

$$
NMZ407-409-411-412-222100-
SOUTHERN DESERTS

CITY           SKY/WX    TMP DP  RH WIND       PRES   REMARKS
DEMING         FAIR      86  14   7 SW18G28   30.02F
LAS CRUCES     FAIR      86  17   8 S12       30.04F
HOLLOMAN AFB   FAIR      86  13   6 S17G25    30.03F
ALAMOGORDO     FAIR      84  19   9 S14G25    30.02F
T OR C         FAIR      83  13   7 S20G32    30.00F

$$
NMZ519>523-222100-
CENTRAL VALLEYS/CENTRAL HIGHLANDS

CITY           SKY/WX    TMP DP  RH WIND       PRES   REMARKS
ALBUQUERQUE    FAIR      76  22  13 S10       30.02F
DOUBLE EAGLE   PTSUNNY   73  25  16 SE15G21   30.06F
MORIARTY ARPT  FAIR      78  22  12 S16G26    30.08F
CLINES CORNERS FAIR      73  21  14 S25G32    30.14F
BELEN          FAIR      79  20  11 S16       30.01F
SOCORRO        FAIR      82  18   9 S18G26    29.99F

$$
NMZ524>526-539-540-222100-
SOUTHCENTRAL MOUNTAINS

CITY           SKY/WX    TMP DP  RH WIND       PRES   REMARKS
RUIDOSO        NOT AVBL

$$
NMZ527>531-222100-
NORTHEAST HIGHLANDS/NORTHEAST PLAINS

CITY           SKY/WX    TMP DP  RH WIND       PRES   REMARKS
LAS VEGAS      FAIR      69  35  28 S22G29    30.11F
RATON          FAIR      68  38  33 S14G22    30.04F
CLAYTON        FAIR      67  44  43 S16G28    30.05F

$$
NMZ532>537-222100-
EASTCENTRAL PLAINS

CITY           SKY/WX    TMP DP  RH WIND       PRES   REMARKS
SANTA ROSA     FAIR      68  42  37 S10       30.06F
TUCUMCARI      FAIR      67  45  45 VRB5      30.05F
CANNON AFB     FAIR      68  51  55 S9        30.08F
CLOVIS AIRPORT FAIR      64  46  52 SE13      30.10F

$$
NMZ028-029-538-222100-
SOUTHEAST PLAINS

CITY           SKY/WX    TMP DP  RH WIND       PRES   REMARKS
ROSWELL        FAIR      77  47  34 SE12      30.08F
ARTESIA        FAIR      77  50  38 VRB7G15   30.02F
CARLSBAD       FAIR      79  50  36 SE7       30.00F
HOBBS          SUNNY     75  50  41 E9        30.07F


$$




USA.gov is the U.S. government's official web portal to all federal, state and local government web resources and services.